Погода в Первомайске

Россия / Красноярский край     58°00′57″N   94°05′41″E
темп.,
°C
ветер,
м/с
пор.,
м/с
влажн.,
%
обл.,
%
осадки,
мм/ч
давл.,
гПа
погр.,
м
11 мая, вт
вт1101:00+8с116340 0.0 102110
04:00+6св22735 0.0 102028
07:00+9всв256210 0.0 1020179
10:00+15всв234417 0.0 1020954
13:00+17св2335100 0.0 10192290
16:00+17св4440100 0.0 10182062
19:00+11всв596050 0.1 1020739
22:00+7всв4106758 0.0 1022499
12 мая, ср
ср1201:00+4в310750 0.0 1023385
04:00+2св38770 0.0 1023230
07:00+4всв36630 0.0 1024419
10:00+9в34424 0.0 10221298
13:00+12всв23310 0.0 10211752
16:00+13всв23271 0.0 10191966
19:00+12всв13345 0.0 1019374
22:00+7в01470 0.0 101910
13 мая, чт
чт1301:00+4вюв11595 0.0 102010
04:00+2в11675 0.0 102010
07:00+7юв12525 0.0 1020192
10:00+13ю23345 0.0 10191389
13:00+15ююв33275 0.0 10172199
16:00+16ю23255 0.0 10152247
19:00+14ююв24346 0.0 1014248
22:00+7ю28585 0.0 1014141
14 мая, пт
пт1401:00+5ююв246596 0.0 101268
04:00+4ююв2266100 0.0 101039
07:00+8ююв2854100 0.0 1008274
10:00+12зюз585397 0.1 10071294
13:00+9зсз2379100 1.6 1007532
16:00+9зюз4678100 0.5 10071314
19:00+5з4893100 1.1 1009831
22:00+3з51196100 0.1 1011842
15 мая, сб
сб1501:00+2зсз6139495 0.6 1013924
04:000з512845 0.0 1015581
07:00+2з4107682 0.0 1017770
10:00+6з5749100 0.0 10161451
13:00+5зюз4575100 0.1 10151020
16:00+3зюз2596100 0.9 1014630
19:00+8сз493695 0.0 10122404
22:00